THORAD AGENA D DEB, 42554

Orbit data source: Space-Track

THORAD AGENA D DEB, 42554 is space debris in SSO originally from a launch on Wed, 08 Apr 1970 UTC launched from the Air Force Western Test Range (AFWTR). Debris objects in space refer to the collection of defunct objects orbiting the Earth. Examples of debris include non-operational satellites, rocket bodies, and fragments generated from explosions, collisions, or faulty payload assembly.

Loading next visibility...
Identifier
42554, 1970-025TL
Orbit
SSO
Country
Flag of USUS
Related business
Manufacturer
Unknown
Mission
Spacecraft
Bus & Motor
Unknown
Mass
Unknown
Launch date (UTC)
1970-04-08 (56 years ago)
Launch vehicle
Unknown
Launch site
Air Force Western Test Range (AFWTR)
Object type
Payload
Rocket body
Debris
Shape & HBR
Unknown shape, 0.1 m
Radar Cross Section
Small (<0.1 m²)

Expand to show TLE details & history
Last TLE update: 4 days ago

TLE from 4 days ago
0 THORAD AGENA D DEB
1 42554U 70025TL  25349.16221279  .00001118  00000-0  11086-2 0  9996
2 42554 100.0420 140.0212 0039320 165.8416 194.3845 13.80505869560513
Epoch: 2025-12-15T03:53Z
TLE epoch observation values (Epoch: 2025-12-15T03:53:35.185Z)
Latitude
-0.00005°
Longitude
-2.44013°
Altitude
992.878 km
Speed
7.341 km/s
True Right ascension
09h 20m 05s
True Declination
0° 00' 00"
Sunlit
Object was in partial shadow at epoch
Visualization orbit readout
Latitude
Unknown
Longitude
Unknown
Altitude
Unknown
Speed
Unknown
Apparent Right ascension
Unknown
Apparent Declination
Unknown
Sunlit
N/A
Visualization observer readout
Local Sidereal Time
05:00:28
Azimuth
Unknown
Elevation
Unknown
Doppler factor
Unknown
Orbital elements
Apogee altitude
988.223 km
Perigee altitude
930.521 km
Semi-major axis
7,337.509 km
Eccentricity
0.00393
Inclination
100.042°
RAAN
140.0212°
Arg. of periapsis
165.8416°
True anomaly
194.2731°
Mean anomaly
194.3845°
Eccentric anomaly
194.32874°
Mean motion
3.45319 °/min
Orbital period
104.25 mins
BSTAR
0.0011086

Documentation

Showing up to 5 results
|